Flag for Germany Weather past 2 weeks in Erlangen, Bavaria, Germany

Now
70 °F

Broken clouds.


Feels Like: 70 °F
Forecast: 62 / 74 °F
Wind: 1 mph from North

Location: Nuernberg

Current Time: Jul 29, 2014 at 10:06:54 PM

Latest Report: Jul 29, 2014 at 9:20 PM


Visibility: N/A

Pressure: 29.74 "Hg

Humidity: 88%

Dew point: 66 °F

Location of ErlangenLocation

Historic Weather in Erlangen — Graph

°F

Erlangen temperature yesterday

Maximum temperature yesterday: 81 °F (at 4:50 PM)
Minimum temperature yesterday: 63 °F (at 2:20 AM)
Average temperature yesterday: 69 °F

Past Weeks' High & Low Weather Summary

 TemperatureHumidityPressure
High90 °F (Jul 19, 3:20 PM)100% (Jul 15, 2:20 AM)30.18 "Hg (Jul 15, 2:20 AM)
Low54 °F (Jul 16, 5:20 AM)26% (Jul 19, 5:50 PM)29.71 "Hg (Jul 29, 5:20 PM)
Average70 °F70%29.97 "Hg
* Reported Jul 14 8:20 PM — Jul 29 8:50 PM, Erlangen, Weather by CustomWeather, © 2014

Note: Actual official high and low records may vary slightly from our data, if they occured in-between our weather recording intervals... More about our weather records

Advertising

Erlangen weather history for previous 24 hours

 ConditionsComfort  
Time TempWeatherWind HumidityBarometerVisibility
8:50 PM
Jul 29
72 °FBroken clouds.2 mph83%29.74 "HgN/A
8:20 PM72 °FBroken clouds.1 mph83%29.74 "HgN/A
7:50 PM72 °FBroken clouds.1 mph83%29.71 "HgN/A
7:20 PM72 °FBroken clouds.6 mph83%29.71 "HgN/A
6:50 PM72 °FBroken clouds.5 mph83%29.74 "HgN/A
6:20 PM72 °FBroken clouds.3 mph83%29.74 "HgN/A
5:50 PM72 °FScattered clouds.2 mph78%29.71 "HgN/A
5:20 PM72 °FScattered clouds.2 mph83%29.71 "HgN/A
4:50 PM72 °FThundershowers. Broken clouds.1 mph83%29.74 "HgN/A
4:20 PM70 °FThundershowers. Broken clouds.1 mph88%29.74 "HgN/A
3:50 PM70 °FPartly sunny.3 mph88%29.74 "HgN/A
3:20 PM68 °FThundershowers. Broken clouds.5 mph88%29.74 "HgN/A
2:50 PM68 °FThunderstorms. Partly sunny.6 mph88%29.77 "HgN/A
2:20 PM75 °FThundershowers. Broken clouds.10 mph65%29.74 "HgN/A
1:50 PM77 °FThundershowers. Broken clouds.7 mph65%29.74 "HgN/A
1:20 PM75 °FBroken clouds.3 mph69%29.77 "HgN/A
12:50 PM75 °FScattered clouds.5 mph69%29.77 "HgN/A
12:20 PM75 °FScattered clouds.2 mph69%29.77 "HgN/A
11:50 AM73 °FScattered clouds.3 mph74%29.77 "HgN/A
11:20 AM73 °FScattered clouds.2 mph74%29.77 "HgN/A
10:50 AM72 °FPassing clouds.2 mph78%29.77 "HgN/A
10:20 AM73 °FPassing clouds.2 mph74%29.77 "HgN/A
9:50 AM70 °FPassing clouds.3 mph78%29.77 "HgN/A
9:20 AM70 °FScattered clouds.3 mph83%29.77 "HgN/A
8:50 AM68 °FPassing clouds.5 mph88%29.77 "HgN/A
8:20 AM66 °FPassing clouds.5 mph88%29.80 "HgN/A
7:50 AM64 °FSunny.1 mph94%29.77 "Hg10 mi
7:20 AM63 °FFog.1 mph100%29.77 "HgN/A
6:50 AM61 °FLight fog.2 mph100%29.77 "HgN/A
6:20 AM61 °FLight fog.1 mph94%29.77 "HgN/A
5:50 AM59 °FFog.1 mph100%29.77 "HgN/A
5:20 AM61 °FFog.1 mph100%29.80 "HgN/A
4:50 AM61 °FFog.6 mph100%29.80 "HgN/A
4:20 AM63 °FFog.2 mph94%29.80 "HgN/A
3:50 AM61 °FFog.2 mph100%29.80 "HgN/A
3:20 AM61 °FFog.3 mph100%29.80 "HgN/A
2:50 AM61 °FFog.2 mph100%29.80 "HgN/A
2:20 AM63 °FClear.2 mph94%29.80 "Hg10 mi
1:50 AM63 °FClear.1 mph100%29.80 "Hg10 mi
1:20 AM63 °FClear.1 mph100%29.80 "Hg10 mi
12:50 AM63 °FClear.1 mph100%29.80 "Hg10 mi
12:20 AM63 °FClear.2 mph100%29.80 "Hg10 mi
11:50 PM
Jul 28
64 °FClear.1 mph94%29.80 "Hg10 mi
10:50 PM64 °FClear.2 mph100%29.80 "Hg10 mi
10:20 PM66 °FPassing clouds.3 mph94%29.80 "HgN/A
Weather by CustomWeather, © 2014

See weather overviewHow to use our weather pages